Winona, MN

1:54 AM CST on November 12, 2019 (GMT -0600)
Winona Municipal-Conrad

Weather History for KONA - July, 2019

Change the Weather History Date:

Wednesday, July 10, 2019

  Actual Average Record
Temperature  
Mean Temperature 74 °F -  
Max Temperature 78 °F 84 °F 101 °F (1976)
Min Temperature 69 °F 63 °F 48 °F (1996)
Cooling Degree Days 8    
Growing Degree Days 24 (Base 50)    
Moisture  
Dew Point 64 °F    
Average Humidity 68    
Maximum Humidity 83    
Minimum Humidity 44    
Precipitation  
Precipitation 0.00 in - - ()
Sea Level Pressure  
Sea Level Pressure 29.86 in    
Wind  
Wind Speed 8 mph (West)    
Max Wind Speed 12 mph    
Max Gust Speed 20 mph    
Visibility 10 miles    
Events      
Averages and records for this station are not official NWS values.
T = Trace of Precipitation, MM = Missing Value Source: NWS Daily Summary

Daily Weather History Graph

Daily Weather History Graph

Search for Another Location

Airport or City:

Astronomy

Jul. 10, 2019 Rise Set
Actual Time 5:33 AM CDT 8:50 PM CDT
Civil Twilight 4:57 AM CDT 9:26 PM CDT
Nautical Twilight 4:11 AM CDT 10:12 PM CDT
Astronomical Twilight 3:14 AM CDT 11:08 PM CDT
Moon 2:48 PM CDT (7/10) 1:23 AM CDT (7/10)
Length of Visible Light 16h 28m
Length of Day
15h 17m
Waxing Gibbous, 64% of the Moon is Illuminated
Jul 10
Waxing Gibbous
Jul 16
Full
Jul 24
Last Quarter
Jul 31
New
Aug 7
First Quarter

Hourly Weather History & Observations

Time (CDT) Temp. Dew Point Humidity Pressure Visibility Wind Dir Wind Speed Gust Speed Precip Events Conditions
12:55 AM 77.0 °F 71.6 °F 83% 29.84 in 10.0 mi SW 9.2 mph - N/A   Clear
1:55 AM 77.0 °F 69.8 °F 78% 29.83 in 10.0 mi WSW 8.1 mph - N/A   Clear
2:55 AM 77.0 °F 69.8 °F 78% 29.84 in 10.0 mi WSW 4.6 mph - N/A   Scattered Clouds
3:55 AM 75.2 °F 69.8 °F 83% 29.85 in 10.0 mi WSW 5.8 mph - N/A   Scattered Clouds
4:55 AM 75.2 °F 69.8 °F 83% 29.84 in 10.0 mi WSW 4.6 mph - N/A   Clear
5:55 AM 75.2 °F 68.0 °F 78% 29.85 in 10.0 mi WSW 6.9 mph - N/A   Clear
6:55 AM 75.2 °F 66.2 °F 73% 29.86 in 10.0 mi WSW 6.9 mph - N/A   Clear
7:55 AM 75.2 °F 66.2 °F 73% 29.84 in 10.0 mi WSW 4.6 mph - N/A   Clear
8:55 AM 78.8 °F 64.4 °F 61% 29.88 in 10.0 mi West 6.9 mph - N/A   Clear
9:55 AM 78.8 °F 60.8 °F 54% 29.89 in 10.0 mi WSW 10.4 mph 17.3 mph N/A   Mostly Cloudy
10:55 AM 78.8 °F 55.4 °F 44% 29.85 in 10.0 mi WSW 8.1 mph 19.6 mph N/A   Clear
11:55 AM 77.0 °F 57.2 °F 50% 29.87 in 10.0 mi West 9.2 mph 17.3 mph N/A   Mostly Cloudy
12:55 PM 77.0 °F 59.0 °F 54% 29.87 in 10.0 mi West 10.4 mph 16.1 mph N/A   Scattered Clouds
1:55 PM 77.0 °F 59.0 °F 54% 29.87 in 10.0 mi WNW 9.2 mph 17.3 mph N/A   Overcast
2:55 PM 77.0 °F 60.8 °F 57% 29.87 in 10.0 mi West 11.5 mph 18.4 mph N/A   Overcast
3:55 PM 78.8 °F 60.8 °F 54% 29.86 in 10.0 mi West 10.4 mph 19.6 mph N/A   Mostly Cloudy
4:55 PM 77.0 °F 60.8 °F 57% 29.86 in 10.0 mi West 8.1 mph - N/A   Mostly Cloudy
5:55 PM 78.8 °F 62.6 °F 57% 29.86 in 10.0 mi WNW 4.6 mph - N/A   Scattered Clouds
6:55 PM 77.0 °F 64.4 °F 65% 29.86 in 10.0 mi West 11.5 mph 17.3 mph N/A   Overcast
7:55 PM 75.2 °F 64.4 °F 69% 29.87 in 10.0 mi West 5.8 mph - N/A   Clear
8:55 PM 75.2 °F 66.2 °F 73% 29.87 in 10.0 mi West 4.6 mph - N/A   Scattered Clouds
9:55 PM 73.4 °F 66.2 °F 78% 29.90 in 10.0 mi WNW 6.9 mph - N/A   Scattered Clouds
10:55 PM 69.8 °F 64.4 °F 83% 29.90 in 10.0 mi WNW 4.6 mph - N/A   Scattered Clouds
11:55 PM 69.8 °F 64.4 °F 83% 29.92 in 10.0 mi WNW 4.6 mph - N/A   Clear